Location: Michelbach Markt
(48.1000°N, 15.7500°E)
Time: 06:24:02
(UTC+01:00)

ISS - Visible Passes

Search period start: 23 January 2021 00:00
Search period end: 02 February 2021 00:00
Orbit: 418 x 421 km, 51.6° (Epoch: 23 January)

Date Brightness Start Highest point End Pass type
(mag) Time Alt. Az. Time Alt. Az. Time Alt. Az.
23 Jan -3.7 17:56:34 10° WSW 17:59:56 71° SSE 18:01:48 24° ENE visible
23 Jan -1.0 19:33:36 10° W 19:34:47 19° WNW 19:34:47 19° WNW visible
24 Jan -3.3 18:46:08 10° W 18:49:24 53° NNW 18:49:24 53° NNW visible
25 Jan -3.6 17:58:40 10° W 18:02:02 64° NNW 18:03:59 23° ENE visible
25 Jan -1.0 19:35:53 10° WNW 19:36:57 18° WNW 19:36:57 18° WNW visible
26 Jan -3.0 18:48:25 10° WNW 18:51:31 43° NNW 18:51:31 43° NNW visible
27 Jan -3.1 18:00:55 10° W 18:04:12 46° N 18:06:04 22° ENE visible
27 Jan -1.0 19:38:01 10° WNW 19:39:03 18° WNW 19:39:03 18° WNW visible
28 Jan -3.1 18:50:35 10° WNW 18:53:36 46° N 18:53:36 46° N visible
29 Jan -3.1 18:03:07 10° WNW 18:06:23 44° N 18:08:10 22° ENE visible
29 Jan -1.0 19:40:01 10° WNW 19:41:09 19° WNW 19:41:09 19° WNW visible
30 Jan -3.6 18:52:36 10° WNW 18:55:45 65° NNW 18:55:45 65° NNW visible
31 Jan -3.5 18:05:09 10° WNW 18:08:30 55° NNE 18:10:25 22° E visible
31 Jan -1.1 19:42:03 10° WNW 19:43:23 21° W 19:43:23 21° W visible
01 Feb -3.6 18:54:33 10° WNW 18:57:55 65° SSW 18:58:07 63° S visible
